Location: *
(28.3744°N, 81.5492°W)
Time: 02:37:29
(UTC+00:00)

Ariane Rocket - Pass Details

Date: 15 June 2025
Orbit: 754 x 765 km, 98.5° (Epoch: 11 July)

Event Time Altitude Azimuth Distance (km) Brightness Sun altitude
Exits shadow 03:50:20 33° 293° (WNW) 1,267 4.4 -33.3°
Drops below altitude 10° 03:53:47 10° 329° (NNW) 2,303 6.3 -33.7°
Sets 03:56:15 0° 337° (NNW) 3,232 7.3 -33.9°
